EW7119 Weather Reports


time (UTC)temp
F
wind
direction
speed
knots
gust
knots
rain 1hr
in
rain 24hr
in
rain mn
in
humidity
%
barometer
mb
20260502193032 49 171 1.7 3.5 0.00 0.17 0.00 36 1019.4
20260502191540 48 138 1.7 4.3 0.00 0.17 0.00 30 1019.8
20260502190033 47 183 0.0 5.2 0.00 0.17 0.00 36 1020.0
20260502184622 47 167 0.0 7.8 0.00 0.27 0.00 31 1020.3
20260502183114 46 271 1.7 7.0 0.00 0.27 0.00 35 1020.4
20260502181612 46 266 1.7 6.1 0.00 0.27 0.00 36 1020.5
20260502163108 42 315 1.7 5.2 0.00 0.47 0.00 41 1021.4
20260502161607 42 249 0.9 3.5 0.00 0.47 0.00 42 1021.4
20260502151551 39 316 0.9 3.5 0.00 0.53 0.00 50 1021.2
20260502123045 26 52 0.0 3.5 0.00 0.53 0.00 78 1021.5
20260502121530 26 73 0.9 2.6 0.00 0.53 0.00 77 1021.3
20260502114558 26 89 0.9 3.5 0.00 0.53 0.00 76 1021.3
20260502113101 26 84 1.7 4.3 0.00 0.53 0.00 76 1021.3
20260502111623 25 82 1.7 4.3 0.00 0.53 0.00 77 1021.3
20260502110012 25 88 1.7 4.3 0.00 0.53 0.00 76 1021.2
20260502104559 25 99 0.9 2.6 0.00 0.53 0.00 78 1021.2
20260502103035 24 101 0.0 0.0 0.00 0.53 0.00 81 1021.1
20260502101532 24 101 0.0 0.0 0.00 0.53 0.00 82 1021.0
20260502090120 25 102 0.0 0.0 0.00 0.53 0.00 84 1020.7
20260502071516 26 102 0.0 0.0 0.00 0.53 0.00 84 1020.8
20260502070056 26 102 0.0 0.0 0.00 0.53 0.00 83 1020.8
20260502064517 26 102 0.0 0.0 0.00 0.53 0.00 84 1020.8
20260502063043 26 102 0.0 1.7 0.00 0.53 0.00 84 1020.8
20260502061546 26 102 0.0 0.0 0.00 0.53 0.00 84 1020.7
20260502054546 27 102 0.0 0.0 0.00 0.53 0.53 85 1020.6
20260502053050 27 102 0.0 0.9 0.00 0.53 0.53 82 1020.5
20260502051630 28 102 0.9 3.5 0.00 0.53 0.53 81 1020.5
20260502050044 28 108 0.0 0.0 0.00 0.53 0.53 80 1020.6
20260502044545 28 108 0.0 0.0 0.00 0.53 0.53 80 1020.5
20260502043123 28 108 0.0 0.0 0.00 0.53 0.53 78 1020.3
20260502041610 29 108 0.0 0.0 0.00 0.53 0.53 77 1020.3
20260502040027 30 108 0.0 0.0 0.00 0.53 0.53 75 1020.2
20260502034619 30 108 0.0 0.0 0.00 0.53 0.53 73 1020.0
20260502033114 30 108 0.0 0.0 0.00 0.53 0.53 72 1019.8
20260502031614 31 108 0.0 0.0 0.00 0.53 0.53 71 1019.6
20260502030112 31 108 0.9 3.5 0.00 0.53 0.53 73 1019.3
20260502024600 32 107 0.9 2.6 0.00 0.53 0.53 72 1019.1
20260502023126 32 100 1.7 3.5 0.00 0.53 0.53 73 1018.8
20260502021553 34 32 0.9 2.6 0.00 0.53 0.53 69 1018.6
20260502020112 35 17 0.0 0.0 0.00 0.53 0.53 60 1018.6
20260502014607 37 28 0.0 4.3 0.00 0.53 0.53 58 1018.2
20260502013028 38 337 0.9 2.6 0.00 0.53 0.53 59 1018.1
20260502011521 38 17 2.6 8.7 0.00 0.53 0.53 55 1017.8
20260502010002 39 329 0.9 3.5 0.00 0.53 0.53 58 1017.5
20260502004513 39 46 0.9 5.2 0.00 0.54 0.53 54 1017.5
20260502003015 38 113 0.9 7.0 0.00 0.54 0.53 58 1017.6
20260502001523 39 67 4.3 7.8 0.00 0.54 0.53 57 1017.7
20260502000100 39 275 1.7 7.8 0.00 0.54 0.53 58 1017.4
20260501234527 41 312 3.5 9.6 0.00 0.55 0.53 57 1017.3
20260501233021 42 350 1.7 7.8 0.00 0.55 0.53 56 1017.1
20260501231539 42 309 3.5 7.8 0.00 0.55 0.53 56 1017.0
20260501230037 39 360 1.7 4.3 0.00 0.55 0.53 62 1017.0
20260501224539 40 341 1.7 5.2 0.00 0.57 0.53 59 1017.0
20260501223037 42 313 0.0 5.2 0.00 0.57 0.53 60 1016.9
20260501221511 41 313 0.0 3.5 0.00 0.57 0.53 67 1017.1
20260501220139 40 302 0.9 3.5 0.00 0.57 0.53 65 1017.4
20260501214545 42 250 0.0 5.2 0.00 0.62 0.53 68 1017.4
20260501213058 40 277 0.9 3.5 0.00 0.62 0.53 70 1017.6
20260501211551 38 295 1.7 5.2 0.00 0.62 0.53 72 1017.8
20260501210118 38 348 0.9 4.3 0.02 0.62 0.53 75 1018.0
20260501204602 39 266 0.0 0.0 0.05 0.65 0.53 69 1017.9
20260501203113 39 266 1.7 6.1 0.09 0.65 0.53 71 1018.1
20260501201607 39 260 1.7 6.1 0.12 0.65 0.53 72 1018.1
20260501200011 38 317 2.6 4.3 0.15 0.63 0.51 74 1018.1
20260501194537 37 311 1.7 5.2 0.14 0.70 0.48 76 1018.1